IRIDIUM 18 [B]

Last updated on Fri Jun 01 2018 00:20:19 GMT+0000 (Coordinated Universal Time)

1 24872U 97034D 18150.73230078 .00000170 00000-0 48917-4 0 9992 2 24872 86.4241 236.7361 0001794 89.6068 270.5336 14.38610656 93880
UTC large
Height (km)
Speed (km/s)
/
Latitude / Longitude
Inclination (degrees)
Orbital Period (minutes)
Azimuth
Elevation
Range (km)
Doppler Factor

Next 0 passes for location: London (51.5072 / 0.1276)

Sorry there are no passes over London.